Home > Weather > Ashgabat > Past weeks

Flag for Turkmenistan Weather for the Past 2 Weeks in Ashgabat, Turkmenistan

Now
41 °F

Sprinkles. Mostly cloudy.


Feels Like: 35 °F
Forecast: 31 / 36 °F
Wind: 9 mph from Northwest

Location: Ashgabat

Current Time: Feb 8, 2016 at 4:08:20 PM

Latest Report: Feb 8, 2016 at 3:30 PM


Visibility: N/A

Pressure: 30.18 "Hg

Humidity: 87%

Dew point: 37 °F

Location of AshgabatLocation

Historic Weather in Ashgabat — Graph

°F

Ashgabat Temperature Yesterday

Maximum temperature yesterday: 73 °F (at 4:00 PM)
Minimum temperature yesterday: 45 °F (at 5:00 AM)
Average temperature yesterday: 55 °F

High & Low Weather Summary for the Past Weeks

 TemperatureHumidityPressure
High73 °F (Feb 7, 4:00 PM)100% (Jan 25, 10:00 PM)30.45 "Hg (Jan 25, 10:00 PM)
Low30 °F (Jan 27, 5:30 PM)17% (Feb 7, 4:00 PM)29.77 "Hg (Feb 6, 3:00 PM)
Average42 °F79%30.14 "Hg
* Reported Jan 24 3:00 PM — Feb 8 3:00 PM, Ashgabat, Weather by CustomWeather, © 2016

Note: Actual official high and low records may vary slightly from our data, if they occured in-between our weather recording intervals... More about our weather records

Advertising

Ashgabat Weather History for the Previous 24 Hours

 ConditionsComfort  
Time TempWeatherWind HumidityBarometerVisibility
3:00 PM
Mon, Feb 8
41 °FSprinkles. Mostly cloudy.9 mph87%30.18 "Hg5 mi
2:30 PM41 °FSprinkles. Mostly cloudy.10 mph93%30.18 "Hg5 mi
2:00 PM41 °FDrizzle. Fog.10 mph93%30.18 "Hg2 mi
1:30 PM41 °FDrizzle. Fog.12 mph93%30.18 "Hg2 mi
1:00 PM41 °FDrizzle. Fog.9 mph100%30.18 "Hg2 mi
12:30 PM41 °FDrizzle. Fog.7 mph93%30.21 "Hg2 mi
12:00 PM41 °FDrizzle. Fog.8 mph93%30.21 "Hg3 mi
11:30 AM41 °FDrizzle. Fog.8 mph93%30.21 "Hg3 mi
11:00 AM41 °FDrizzle. Fog.8 mph93%30.21 "Hg2 mi
10:30 AM41 °FDrizzle. Fog.8 mph93%30.21 "Hg2 mi
10:00 AM41 °FDrizzle. Low clouds.12 mph93%30.18 "Hg3 mi
9:00 AM43 °FOvercast.14 mph87%30.18 "HgN/A
8:00 AM45 °FOvercast.15 mph81%30.15 "HgN/A
7:00 AM46 °FOvercast.15 mph76%30.12 "HgN/A
6:00 AM48 °FOvercast.15 mph71%30.09 "HgN/A
5:00 AM48 °FOvercast.9 mph71%30.07 "HgN/A
4:00 AM46 °FPassing clouds.5 mph82%30.07 "HgN/A
3:00 AM46 °FPassing clouds.6 mph82%30.04 "HgN/A
2:00 AM48 °FPassing clouds.6 mph76%30.04 "HgN/A
1:00 AM48 °FPartly cloudy.14 mph71%30.04 "HgN/A
12:00 AM50 °FPartly cloudy.16 mph71%30.01 "HgN/A
11:00 PM
Sun, Feb 7
52 °FPartly cloudy.10 mph67%29.98 "HgN/A
10:30 PM52 °FPassing clouds.10 mph67%29.98 "HgN/A
10:00 PM52 °FPassing clouds.9 mph67%29.98 "HgN/A
9:30 PM54 °FPassing clouds.8 mph63%29.95 "HgN/A
9:00 PM54 °FPassing clouds.9 mph63%29.95 "HgN/A
8:00 PM55 °FPassing clouds.9 mph63%29.92 "HgN/A
7:00 PM57 °FBroken clouds.14 mph59%29.89 "Hg6 mi
6:00 PM68 °FBroken clouds.1 mph30%29.86 "HgN/A
5:00 PM70 °FBroken clouds.5 mph23%29.83 "HgN/A
4:00 PM73 °FPartly sunny.1 mph17%29.86 "HgN/A
Weather by CustomWeather, © 2016

See weather overviewHow to use our weather pages